This demonstration page uses our WeatherBlox Daily Observations layout. Learn more.

Left ArrowRight Arrow

Hourly Observations for June 20, 2021

Temp ( °F °C ) Dew Point ( °F °C ) Humidity (%) Winds ( mph kmh ) Pressure ( in mb ) Visibility ( mi km ) Precip ( " mm )
12:53 am 00:53 Clear 82 27.8 41 5 23 23 Calm 29.68 1005 10 16 0.00 0.00
1:53 am 01:53 Clear 76 24.4 42 5.6 30 30 Calm 29.68 1005 10 16 0.00 0.00
2:53 am 02:53 Clear 74 23.3 44 6.7 34 34 Calm 29.68 1005 10 16 0.00 0.00
3:53 am 03:53 Clear 73 22.8 45 7.2 37 37 Calm 29.69 1005 10 16 0.00 0.00
4:53 am 04:53 Clear 70 21.1 46 7.8 42 42 WNW 3 6 29.70 1006 10 16 0.00 0.00
5:53 am 05:53 Sunny 69 20.6 46 7.8 44 44 NNE 3 6 29.72 1007 10 16 0.00 0.00
6:53 am 06:53 Sunny 72 22.2 46 7.8 40 40 Calm 29.73 1007 10 16 0.00 0.00
7:53 am 07:53 Sunny 79 26.1 46 7.8 31 31 Calm 29.74 1007 10 16 0.00 0.00
8:53 am 08:53 Sunny 85 29.4 43 6.1 23 23 Calm 29.74 1007 10 16 0.00 0.00
9:53 am 09:53 Sunny 91 32.8 43 6.1 19 19 VRB 3 6 29.74 1007 10 16 0.00 0.00
10:53 am 10:53 Sunny 95 35 43 6.1 17 17 Calm 29.73 1007 10 16 0.00 0.00
11:53 am 11:53 Sunny 98 36.7 45 7.2 16 16 VRB 5 7 29.73 1007 10 16 0.00 0.00
12:53 pm 12:53 Sunny 101 38.3 41 5 13 13 SSW 8 13 29.72 1007 10 16 0.00 0.00
1:53 pm 13:53 Sunny 103 39.4 42 5.6 12 12 SE 6 9 29.71 1006 10 16 0.00 0.00
2:53 pm 14:53 Sunny 106 41.1 38 3.3 10 10 SSE 12 19 29.70 1006 10 16 0.00 0.00
3:53 pm 15:53 Sunny 107 41.7 39 3.9 10 10 SSE 16 26 29.68 1005 10 16 0.00 0.00
4:53 pm 16:53 Sunny 106 41.1 38 3.3 10 10 SSE 16 26 29.68 1005 10 16 0.00 0.00
5:53 pm 17:53 Sunny 103 39.4 40 4.4 11 11 SSE 14 22 29.67 1005 10 16 0.00 0.00
6:53 pm 18:53 Sunny 103 39.4 29 -1.7 7 7 S 12 19 29.67 1005 10 16 0.00 0.00
7:53 pm 19:53 Sunny 99 37.2 39 3.9 12 12 SSE 8 13 29.68 1005 10 16 0.00 0.00
8:53 pm 20:53 Clear 92 33.3 45 7.2 20 20 SSE 5 7 29.69 1006 10 16 0.00 0.00
9:53 pm 21:53 Clear 87 30.6 44 6.7 22 22 Calm 29.72 1006 10 16 0.00 0.00
10:53 pm 22:53 Clear 82 27.8 45 7.2 27 27 NNE 5 7 29.74 1007 10 16 0.00 0.00
11:53 pm 23:53 Clear 81 27.2 41 5 24 24 NNE 3 6 29.75 1007 10 16 0.00 0.00

Powered by AerisWeather